Weather Roundup
Issued by NWS

Home | Current Version | Previous Version | Graphics & Text | Print | Product List | Glossary Off
Versions: 1 2 3 4 5 6 7 8 9 10 11 12 13 14 15 16 17 18 19 20 21 22 23 24 25 26 27 28 29 30 31 32 33 34 35 36 37 38 39 40 41 42 43 44 45 46 47 48 49 50

000
NZUS93 KARX 211159
HRRWXR

CURRENT HOURLY OBSERVATIONS ACROSS
MUCH OF THE UPPER MISSISSIPPI VALLEY
NATIONAL WEATHER SERVICE LA CROSSE WI
600 AM CST WED FEB 21 2018


...SOUTHEAST MINNESOTA...


CITY           SKY/WX    TMP DP  RH WIND       PRES   REMARKS
ROCHESTER      FAIR       4   1  88 W8        30.49R WCI  -9
ROCHESTER/MAYO FAIR       6   1  82 W6        30.51R WCI  -5
WINONA         FAIR      10   3  72 NW3       30.53R
AUSTIN         FAIR       5   0  78 NW3       30.51R
ALBERT LEA     FAIR       7   0  72 CALM      30.51R
DODGE CENTER   FAIR       3  -2  78 W3        30.49R
PRESTON        FAIR       5   1  81 NW5       30.50R FOG     WCI  -4
OWATONNA       FAIR       0  -6  78 SW3       30.52R
FARIBAULT      FAIR       1  -2  85 CALM      30.52R
$$

...ELSEWHERE IN MINNESOTA...


CITY           SKY/WX    TMP DP  RH WIND       PRES   REMARKS
MINNEAPOLIS    FAIR       3  -1  83 W7        30.53R WCI  -9
INTNL FALLS    FAIR     -13 -16  86 SW7       30.29R WCI -29
DULUTH         FAIR      -3  -8  79 W13       30.35R WCI -22
RED WING       FAIR       0  -6  78 CALM      30.53R
REDWOOD FALLS  CLOUDY    -1  -7  75 W7        30.52R WCI -14
MANKATO        FAIR       2  -3  80 W8        30.54R WCI -12
WORTHINGTON    CLOUDY    -3  -7  82 CALM      30.49S
FAIRMONT       CLEAR      1  -4  79 W5        30.54R WCI  -9
$$

...SOUTHWEST WISCONSIN...


CITY           SKY/WX    TMP DP  RH WIND       PRES   REMARKS
LA CROSSE      FAIR      11   4  73 NW10      30.53R WCI  -3
PRAIRIE DU CHI FAIR      15   6  68 NW9       30.51R WCI   3
BOSCOBEL       FAIR      16   8  71 NW6       30.51R WCI   7
LONE ROCK      NOT AVBL
PLATTEVILLE    FAIR      18  14  87 NW9       30.46R WCI   6
FORT MC COY    FAIR      12   8  83 NW8       30.50R WCI   0
CAMP DOUGLAS   PTCLDY    12   7  79 NW8       30.47R WCI   1
MAUSTON-NEW LI PTSUNNY   15  10  81 NW8       30.46R WCI   4
VIROQUA        FAIR      11   9  92 NW6       30.45R WCI   2
WIS DELLS      FAIR      17  11  79 NW7       30.44R WCI   7
$$

...ELSEWHERE IN WISCONSIN...


CITY           SKY/WX    TMP DP  RH WIND       PRES   REMARKS
MILWAUKEE      MOCLDY    25  14  63 NW13      30.40R WCI  14
MADISON        MOCLDY    19  12  74 N9        30.45R WCI   8
GREEN BAY      FAIR      19  10  68 NW13      30.42R WCI   6
EAU CLAIRE     NOT AVBL
BLACK RVR FLS  FAIR       8   2  75 NW6       30.49R WCI  -2
MEDFORD        FAIR       4   0  85 W5        30.38R WCI  -6
WAUSAU         FAIR       8   4  83 W9        30.40R WCI  -5
WIS RAPIDS     FAIR      11   4  73 NW8       30.46R WCI  -1
MARSHFIELD     FAIR       6   1  80 W9        30.42R WCI  -8
RICE LAKE      FAIR      -4  -6  88 CALM      30.47R
$$

...NORTHEAST IOWA...


CITY           SKY/WX    TMP DP  RH WIND       PRES   REMARKS
WATERLOO       FAIR      11   5  77 NW13      30.54R WCI  -4
DUBUQUE        FAIR      16   9  74 N10       30.46R WCI   4
DECORAH        FAIR       9   5  85 NW10      30.48R WCI  -6
MASON CITY     CLEAR      6   1  80 NW12      30.54R WCI  -9
CHARLES CITY   FAIR      10   9  92 NW8       30.53R WCI  -1
OELWEIN        FAIR      12  10  92 NW10G16   30.52R WCI  -1
$$

...ELSEWHERE IN IOWA...


CITY           SKY/WX    TMP DP  RH WIND       PRES   REMARKS
DES MOINES     PTCLDY    13   6  74 N8        30.56R WCI   2
IOWA CITY      FAIR      19  10  68 NW10      30.52R WCI   7
FORT DODGE     CLEAR      5   1  83 NW3       30.56R
MARSHALLTOWN   CLOUDY    11   6  81 N13       30.53R WCI  -4
CEDAR RAPIDS   FAIR      16   8  71 NW13      30.49R WCI   2
$$

...NORTHERN ILLINOIS...


CITY           SKY/WX    TMP DP  RH WIND       PRES   REMARKS
CHICAGO-OHARE  CLOUDY    29  22  75 NW15      30.39R WCI  18
CHICAGO-MIDWAY CLOUDY    31  25  78 NW15      30.38R WCI  20
MOLINE         FAIR      22  14  71 NW9       30.47R WCI  12
ROCKFORD       CLOUDY    25  18  74 N10       30.45R WCI  15
PEORIA         FAIR      25  20  81 N8G18     30.43R WCI  16
$$

NOTE: "FAIR" INDICATES FEW OR NO CLOUDS BELOW 12,000 FEET WITH NO
SIGNIFICANT WEATHER AND/OR OBSTRUCTIONS TO VISIBILITY. WIND
SPEEDS ARE IN MILES-PER-HOUR.




USA.gov is the U.S. government's official web portal to all federal, state and local government web resources and services.